Location: Pl�tzky
(52.0521°N, 11.8020°E)
Time: 16:20:16
(UTC+00:00)

Cosmos 1869 - Pass Details

Date: 22 November 2019
Orbit: 529 x 554 km, 82.5° (Epoch: 13 December)

Event Time Altitude Azimuth Distance (km) Brightness Sun altitude
Rises 15:57:16 0° 183° (S) 2,675 7.2 -6.8°
Reaches altitude 10° 15:59:25 10° 181° (S) 1,786 6.3 -7.1°
Maximum altitude 16:03:19 69° 98° (E) 575 3.2 -7.7°
Drops below altitude 10° 16:07:14 10° 15° (NNE) 1,793 5.6 -8.2°
Sets 16:09:23 0° 13° (NNE) 2,687 6.5 -8.5°
